Weather History for KCGS - October, 2012

Change the Weather History Date:

Tuesday, October 23, 2012

  Actual Average Record
Temperature  
Mean Temperature 64 °F -  
Max Temperature 81 °F 68 °F 84 °F (1979)
Min Temperature 47 °F 45 °F 28 °F (1952)
Degree Days  
Heating Degree Days 1    
Growing Degree Days 14 (Base 50)    
Moisture  
Dew Point 50 °F    
Average Humidity 69    
Maximum Humidity 95    
Minimum Humidity 28    
Precipitation  
Precipitation 0.00 in - - ()
Sea Level Pressure  
Sea Level Pressure 30.09 in    
Wind  
Wind Speed 0 mph (SE)    
Max Wind Speed 5 mph    
Max Gust Speed -    
Visibility 9 miles    
Events      
Averages and records for this station are not official NWS values.
T = Trace of Precipitation, MM = Missing Value Source: NWS Daily Summary

Daily Weather History Graph

Daily Weather History Graph

Search for Another Location

Airport or City:

Trip Planner

Search our weather history database for the weather conditions in past years. The results will help you decide how hot, cold, wet, or windy it might be!

Date:

Astronomy

Oct. 23, 2012 Rise Set
Actual Time 7:25 AM EDT 6:17 PM EDT
Civil Twilight 6:58 AM EDT 6:44 PM EDT
Nautical Twilight 6:27 AM EDT 7:15 PM EDT
Astronomical Twilight 5:56 AM EDT 7:46 PM EDT
Moon 2:57 PM EDT (10/23) 1:18 AM EDT (10/23)
Length of Visible Light 11h 45m
Length of Day
10h 51m
Waxing Gibbous, 66% of the Moon is Illuminated
Oct 23
Waxing Gibbous
Oct 29
Full
Nov 6
Last Quarter
Nov 13
New
Nov 20
First Quarter

Hourly Weather History & Observations

Time (EDT) Temp. Dew Point Humidity Pressure Visibility Wind Dir Wind Speed Gust Speed Precip Events Conditions
12:15 AM 49.5 °F 47.3 °F 92% 30.12 in 10.0 mi Calm Calm - N/A   Clear
12:35 AM 49.3 °F 47.3 °F 93% 30.13 in 10.0 mi Calm Calm - N/A   Clear
1:15 AM 49.3 °F 47.5 °F 94% 30.12 in 7.0 mi Calm Calm - N/A   Clear
1:40 AM 48.4 °F 46.6 °F 93% 30.13 in 10.0 mi Calm Calm - N/A   Clear
2:00 AM 48.6 °F 46.8 °F 93% 30.12 in 7.0 mi Calm Calm - N/A   Clear
2:20 AM 48.6 °F 46.9 °F 94% 30.11 in 7.0 mi Calm Calm - N/A   Clear
2:45 AM 48.6 °F 47.3 °F 95% 30.12 in 5.0 mi Calm Calm - N/A   Clear
3:05 AM 48.4 °F 46.8 °F 94% 30.11 in 5.0 mi Calm Calm - N/A   Clear
3:45 AM 48.7 °F 47.3 °F 95% 30.11 in 7.0 mi Calm Calm - N/A   Clear
4:10 AM 48.2 °F 46.8 °F 95% 30.10 in 5.0 mi Calm Calm - N/A   Clear
4:30 AM 48.2 °F 46.8 °F 95% 30.10 in 5.0 mi Calm Calm - N/A   Clear
4:50 AM 48.2 °F 46.4 °F 93% 30.11 in 5.0 mi Calm Calm - N/A   Clear
5:10 AM 47.8 °F 46.4 °F 95% 30.11 in 7.0 mi Calm Calm - N/A   Clear
5:35 AM 48.2 °F 46.6 °F 94% 30.11 in 5.0 mi Calm Calm - N/A   Clear
5:55 AM 47.7 °F 46.4 °F 95% 30.11 in 4.0 mi Calm Calm - N/A   Clear
6:15 AM 47.8 °F 46.4 °F 95% 30.11 in 5.0 mi Calm Calm - N/A   Clear
6:35 AM 48.2 °F 46.6 °F 94% 30.12 in 7.0 mi Calm Calm - N/A   Clear
7:40 AM 47.7 °F 46.4 °F 95% 30.12 in 7.0 mi Calm Calm - N/A   Clear
8:00 AM 48.6 °F 47.3 °F 95% 30.13 in 7.0 mi Calm Calm - N/A   Clear
8:45 AM 51.8 °F 50.0 °F 94% 30.14 in 10.0 mi Calm Calm - N/A   Clear
9:05 AM 54.0 °F 50.2 °F 87% 30.14 in 10.0 mi Calm Calm - N/A   Clear
9:25 AM 55.2 °F 50.9 °F 85% 30.14 in 10.0 mi Calm Calm - N/A   Clear
9:50 AM 59.4 °F 50.0 °F 71% 30.15 in 10.0 mi Calm Calm - N/A   Clear
10:10 AM 61.5 °F 49.5 °F 65% 30.14 in 10.0 mi Calm Calm - N/A   Clear
11:15 AM 68.0 °F 49.5 °F 51% 30.13 in 10.0 mi Calm Calm - N/A   Clear
11:35 AM 70.2 °F 49.3 °F 47% 30.12 in 10.0 mi Calm Calm - N/A   Scattered Clouds
11:55 AM 71.6 °F 48.9 °F 45% 30.13 in 10.0 mi North 3.5 mph - N/A   Scattered Clouds
12:15 PM 73.6 °F 48.7 °F 41% 30.12 in 10.0 mi ESE 3.5 mph - N/A   Clear
12:40 PM 75.7 °F 47.1 °F 36% 30.10 in 10.0 mi Calm Calm - N/A   Clear
1:00 PM 76.1 °F 45.9 °F 34% 30.09 in 7.0 mi Calm Calm - N/A   Clear
1:20 PM 77.0 °F 47.1 °F 35% 30.09 in 10.0 mi Calm Calm - N/A   Clear
1:40 PM 77.7 °F 47.1 °F 34% 30.08 in 10.0 mi Calm Calm - N/A   Clear
2:05 PM 78.8 °F 46.8 °F 32% 30.07 in 10.0 mi Calm Calm - N/A   Clear
2:25 PM 79.7 °F 46.8 °F 31% 30.06 in 10.0 mi Calm Calm - N/A   Clear
2:45 PM 80.6 °F 48.0 °F 32% 30.05 in 10.0 mi East 3.5 mph - N/A   Clear
3:00 PM 80.6 °F 46.6 °F 30% 30.05 in 10.0 mi Calm Calm - N/A   Clear
3:30 PM 81.1 °F 44.8 °F 28% 30.04 in 10.0 mi SW 3.5 mph - N/A   Clear
3:50 PM 81.5 °F 46.6 °F 29% 30.04 in 10.0 mi South 4.6 mph - N/A   Clear
4:10 PM 80.6 °F 45.7 °F 29% 30.04 in 10.0 mi Calm Calm - N/A   Clear
4:30 PM 79.3 °F 46.6 °F 31% 30.04 in 10.0 mi Calm Calm - N/A   Clear
4:55 PM 79.3 °F 45.5 °F 30% 30.04 in 10.0 mi Calm Calm - N/A   Clear
5:15 PM 78.8 °F 48.0 °F 34% 30.05 in 10.0 mi Calm Calm - N/A   Clear
5:35 PM 76.3 °F 54.3 °F 46% 30.05 in 10.0 mi Calm Calm - N/A   Clear
5:55 PM 75.2 °F 55.0 °F 49% 30.05 in 10.0 mi Calm Calm - N/A   Clear
6:20 PM 72.1 °F 55.8 °F 56% 30.05 in 10.0 mi Calm Calm - N/A   Clear
6:40 PM 71.1 °F 55.4 °F 58% 30.06 in 10.0 mi Calm Calm - N/A   Clear
7:00 PM 70.5 °F 55.0 °F 58% 30.06 in 10.0 mi Calm Calm - N/A   Clear
7:20 PM 69.3 °F 55.4 °F 61% 30.06 in 10.0 mi Calm Calm - N/A   Clear
8:05 PM 64.2 °F 57.7 °F 79% 30.07 in 10.0 mi Calm Calm - N/A   Clear
8:45 PM 63.0 °F 57.6 °F 82% 30.07 in 10.0 mi Calm Calm - N/A   Clear
9:10 PM 62.8 °F 58.3 °F 85% 30.07 in 10.0 mi Calm Calm - N/A   Clear
9:30 PM 61.9 °F 57.7 °F 86% 30.08 in 10.0 mi Calm Calm - N/A   Clear
9:50 PM 60.8 °F 56.8 °F 87% 30.08 in 10.0 mi Calm Calm - N/A   Clear
10:10 PM 60.8 °F 57.0 °F 87% 30.08 in 10.0 mi Calm Calm - N/A   Clear
10:35 PM 59.4 °F 55.8 °F 88% 30.08 in 10.0 mi Calm Calm - N/A   Clear
10:55 PM 59.4 °F 57.4 °F 93% 30.08 in 10.0 mi Calm Calm - N/A   Clear
11:15 PM 59.9 °F 57.4 °F 91% 30.07 in 10.0 mi Calm Calm - N/A   Clear
11:35 PM 59.2 °F 56.5 °F 91% 30.07 in 10.0 mi Calm Calm - N/A   Clear